This demonstration page uses our WeatherBlox Daily Observations layout. Learn more.

Hourly Observations for January 12, 2016

Temp ( °F °C ) Dew Point ( °F °C ) Humidity (%) Winds ( mph kmh ) Pressure ( in mb ) Visibility ( mi km ) Precip ( " mm )
12:15 am 00:15 Clear 27 -3 21 -6 80 80 WNW 3 6 30.12 1020 10 16.09344 0 0
12:35 am 00:35 Clear 28 -2 21 -6 74 74 WNW 3 6 30.12 1020 10 16.09344 0 0
12:55 am 00:55 Clear 27 -3 21 -6 80 80 W 3 6 30.12 1020 10 16.09344 0 0
1:15 am 01:15 Clear 28 -2 21 -6 74 74 W 6 9 30.12 1020 10 16.09344 0 0
1:35 am 01:35 Clear 28 -2 21 -6 74 74 NW 6 9 30.12 1020 10 16.09344 0 0
1:55 am 01:55 Partly Cloudy 28 -2 23 -5 80 80 NW 6 9 30.12 1020 10 16.09344 0 0
2:15 am 02:15 Clear 28 -2 23 -5 80 80 WNW 6 9 30.12 1020 10 16.09344 0 0
2:35 am 02:35 Clear 28 -2 21 -6 74 74 WNW 5 7 30.15 1021 10 16.09344 0 0
2:55 am 02:55 Clear 27 -3 21 -6 80 80 WNW 5 7 30.15 1021 10 16.09344 0 0
3:15 am 03:15 Clear 25 -4 19 -7 80 80 WNW 6 9 30.21 1023 10 16.09344 0 0
3:35 am 03:35 Clear 27 -3 19 -7 74 74 NW 5 7 30.21 1023 10 16.09344 0 0
3:55 am 03:55 Clear 27 -3 19 -7 74 74 NW 6 9 30.21 1023 10 16.09344 0 0
4:15 am 04:15 Clear 25 -4 19 -7 80 80 NW 5 7 30.24 1024 10 16.09344 0 0
4:35 am 04:35 Clear 25 -4 19 -7 80 80 NNW 7 11 30.24 1024 10 16.09344 0 0
4:55 am 04:55 Clear 25 -4 19 -7 80 80 NNW 7 11 30.24 1024 10 16.09344 0 0
5:15 am 05:15 Clear 25 -4 19 -7 80 80 N 8 13 30.24 1024 10 16.09344 0 0
5:35 am 05:35 Partly Cloudy 25 -4 21 -6 86 86 NE 8 13 30.27 1025 10 16.09344 0 0
5:55 am 05:55 Mostly Cloudy 25 -4 23 -5 93 93 NE 13 20 30.27 1025 10 16.09344 0 0
6:15 am 06:15 Mostly Cloudy 25 -4 21 -6 86 86 NE 8 13 30.27 1025 10 16.09344 0 0
6:35 am 06:35 Cloudy 25 -4 21 -6 86 86 ENE 6 9 30.27 1025 10 16.09344 0 0
6:55 am 06:55 Cloudy 25 -4 21 -6 86 86 ENE 5 7 30.27 1025 10 16.09344 0 0
7:15 am 07:15 Cloudy 23 -5 21 -6 93 93 NE 6 9 30.27 1025 10 16.09344 0 0
7:35 am 07:35 Cloudy 23 -5 21 -6 93 93 Calm 30.27 1025 10 16.09344 0 0
7:55 am 07:55 Cloudy 23 -5 21 -6 93 93 Calm 30.27 1025 10 16.09344 0 0
8:15 am 08:15 Cloudy 23 -5 19 -7 86 86 Calm 30.27 1025 10 16.09344 0 0
8:35 am 08:35 Cloudy 25 -4 21 -6 86 86 Calm 30.3 1026 10 16.09344 0 0
8:55 am 08:55 Cloudy 25 -4 21 -6 86 86 ENE 3 6 30.3 1026 10 16.09344 0 0
9:15 am 09:15 Cloudy 25 -4 21 -6 86 86 ENE 3 6 30.3 1026 10 16.09344 0 0
9:35 am 09:35 Cloudy 25 -4 19 -7 80 80 E 3 6 30.33 1027 10 16.09344 0 0
9:55 am 09:55 Mostly Cloudy 25 -4 19 -7 80 80 Calm 30.33 1027 10 16.09344 0 0
10:15 am 10:15 Mostly Cloudy 27 -3 19 -7 74 74 Calm 30.33 1027 10 16.09344 0 0
10:35 am 10:35 Mostly Cloudy 27 -3 21 -6 80 80 SSW 3 6 30.33 1027 10 16.09344 0 0
10:55 am 10:55 Cloudy 27 -3 21 -6 80 80 S 7 11 30.33 1027 10 16.09344 0 0
11:15 am 11:15 Cloudy 28 -2 23 -5 80 80 SSW 6 9 30.33 1027 10 16.09344 0 0
11:35 am 11:35 Mostly Cloudy 28 -2 23 -5 80 80 SSW 6 9 30.33 1027 10 16.09344 0 0
11:55 am 11:55 Mostly Cloudy 30 -1 25 -4 80 80 SSW 7 11 30.3 1026 10 16.09344 0 0
12:15 pm 12:15 Cloudy 30 -1 25 -4 80 80 SW 6 9 30.27 1025 10 16.09344 0 0
12:35 pm 12:35 Cloudy 30 -1 25 -4 80 80 SSW 9 15 30.27 1025 10 16.09344 0 0
12:55 pm 12:55 Cloudy 32 0 25 -4 75 75 SW 6 9 30.24 1024 10 16.09344 0 0
1:15 pm 13:15 Cloudy 32 0 25 -4 75 75 SW 7 11 30.24 1024 10 16.09344 0 0
1:35 pm 13:35 Mostly Cloudy 32 0 25 -4 75 75 SSW 9 15 30.24 1024 10 16.09344 0 0
1:55 pm 13:55 Mostly Cloudy 34 1 27 -3 75 75 SSW 12 19 30.21 1023 10 16.09344 0 0
2:15 pm 14:15 Partly Cloudy 34 1 25 -4 70 70 SSW 14 22 30.21 1023 10 16.09344 0 0
2:35 pm 14:35 Sunny 36 2 27 -3 70 70 SSW 14 22 30.21 1023 10 16.09344 0 0
2:55 pm 14:55 Sunny 36 2 25 -4 65 65 SSW 10 17 30.18 1022 10 16.09344 0 0
3:15 pm 15:15 Sunny 36 2 27 -3 70 70 SSW 12 19 30.18 1022 10 16.09344 0 0
3:35 pm 15:35 Mostly Cloudy 36 2 25 -4 65 65 SSW 14 22 30.18 1022 10 16.09344 0 0
3:55 pm 15:55 Cloudy 37 3 27 -3 65 65 SSW 12 19 30.18 1022 10 16.09344 0 0
4:15 pm 16:15 Partly Cloudy 36 2 25 -4 65 65 S 10 17 30.18 1022 10 16.09344 0 0
4:35 pm 16:35 Sunny 36 2 27 -3 70 70 S 9 15 30.18 1022 10 16.09344 0 0
4:55 pm 16:55 Sunny 36 2 27 -3 70 70 S 8 13 30.18 1022 10 16.09344 0 0
5:15 pm 17:15 Sunny 34 1 27 -3 75 75 S 7 11 30.18 1022 10 16.09344 0 0
5:35 pm 17:35 Clear 32 0 27 -3 80 80 S 6 9 30.21 1023 10 16.09344 0 0
5:55 pm 17:55 Clear 32 0 27 -3 80 80 S 9 15 30.21 1023 10 16.09344 0 0
6:15 pm 18:15 Clear 32 0 27 -3 80 80 S 6 9 30.21 1023 10 16.09344 0 0
6:35 pm 18:35 Clear 32 0 25 -4 75 75 S 12 19 30.21 1023 10 16.09344 0 0
6:55 pm 18:55 Clear 32 0 25 -4 75 75 S 13 20 30.21 1023 10 16.09344 0 0
7:15 pm 19:15 Clear 32 0 25 -4 75 75 S 12 19 30.21 1023 10 16.09344 0 0
7:35 pm 19:35 Clear 32 0 25 -4 75 75 SSW 10 17 30.21 1023 10 16.09344 0 0
7:55 pm 19:55 Clear 32 0 25 -4 75 75 SSW 10 17 30.21 1023 10 16.09344 0 0
8:15 pm 20:15 Clear 32 0 25 -4 75 75 SSW 10 17 30.21 1023 10 16.09344 0 0
8:35 pm 20:35 Clear 30 -1 25 -4 80 80 SSW 9 15 30.21 1023 10 16.09344 0 0
8:55 pm 20:55 Clear 30 -1 25 -4 80 80 S 9 15 30.18 1022 10 16.09344 0 0
9:15 pm 21:15 Clear 30 -1 25 -4 80 80 S 10 17 30.18 1022 10 16.09344 0 0
9:35 pm 21:35 Clear 30 -1 25 -4 80 80 SSW 9 15 30.18 1022 10 16.09344 0 0
9:55 pm 21:55 Clear 30 -1 25 -4 80 80 SSW 8 13 30.18 1022 10 16.09344 0 0
10:15 pm 22:15 Partly Cloudy 30 -1 25 -4 80 80 SSW 9 15 30.18 1022 10 16.09344 0 0
10:35 pm 22:35 Partly Cloudy 30 -1 23 -5 75 75 SSW 12 19 30.18 1022 10 16.09344 0 0
10:55 pm 22:55 Clear 30 -1 23 -5 75 75 SSW 9 15 30.18 1022 10 16.09344 0 0
11:15 pm 23:15 Clear 28 -2 23 -5 80 80 SW 6 9 30.18 1022 10 16.09344 0 0
11:35 pm 23:35 Clear 28 -2 21 -6 74 74 SW 5 7 30.18 1022 10 16.09344 0 0
11:55 pm 23:55 Clear 30 -1 21 -6 69 69 WSW 7 11 30.18 1022 10 16.09344 0 0

Powered by AerisWeather